Time,TemperatureF,DewpointF,PressureIn,WindDirection,WindDirectionDegrees,WindSpeedMPH,WindSpeedGustMPH,Humidity,HourlyPrecipIn,Conditions,Clouds,dailyrainin,SoftwareType,DateUTC
2013-04-01 00:08:00,30.8,19.8,29.87,NNW,348,2.9,4.2,63,0.00,,,0.00,WUHU216HW,2013-04-01 05:08:00,
2013-04-01 00:18:00,30.6,20.0,29.87,NNW,347,3.3,5.2,64,0.00,,,0.00,WUHU216HW,2013-04-01 05:18:00,
2013-04-01 00:28:00,30.6,19.6,29.87,North,0,3.9,7.4,63,0.00,,,0.00,WUHU216HW,2013-04-01 05:28:00,
2013-04-01 00:38:00,30.4,19.1,29.88,North,359,4.6,5.9,62,0.00,,,0.00,WUHU216HW,2013-04-01 05:38:00,
2013-04-01 00:48:00,30.2,18.1,29.88,North,349,5.1,9.4,60,0.00,,,0.00,WUHU216HW,2013-04-01 05:48:00,
2013-04-01 00:58:00,30.1,18.0,29.88,NNW,346,5.4,6.6,60,0.00,,,0.00,WUHU216HW,2013-04-01 05:58:00,
2013-04-01 01:08:00,29.9,17.4,29.89,North,356,5.2,7.4,59,0.00,,,0.00,WUHU216HW,2013-04-01 06:08:00,
2013-04-01 01:18:00,29.5,17.0,29.89,North,352,6.1,8.4,59,0.00,,,0.00,WUHU216HW,2013-04-01 06:18:00,
2013-04-01 01:28:00,29.3,17.6,29.90,North,352,6.2,9.8,61,0.00,,,0.00,WUHU216HW,2013-04-01 06:28:00,
2013-04-01 01:38:00,29.2,17.2,29.90,NNW,347,4.7,7.9,60,0.00,,,0.00,WUHU216HW,2013-04-01 06:38:00,
2013-04-01 01:48:00,29.2,16.8,29.90,NNW,347,6.7,9.1,59,0.00,,,0.00,WUHU216HW,2013-04-01 06:48:00,
2013-04-01 01:58:00,29.2,17.9,29.91,NNW,348,4.3,6.6,62,0.00,,,0.00,WUHU216HW,2013-04-01 06:58:00,
2013-04-01 02:08:00,28.8,17.5,29.91,NNW,341,4.4,6.9,62,0.00,,,0.00,WUHU216HW,2013-04-01 07:08:00,
2013-04-01 02:18:00,28.4,17.2,29.91,North,2,4.3,5.4,62,0.00,,,0.00,WUHU216HW,2013-04-01 07:18:00,
2013-04-01 02:28:00,28.4,16.4,29.92,North,351,5.4,7.4,60,0.00,,,0.00,WUHU216HW,2013-04-01 07:28:00,
2013-04-01 02:38:00,28.3,16.3,29.92,NNW,343,6.7,9.8,60,0.00,,,0.00,WUHU216HW,2013-04-01 07:38:00,
2013-04-01 02:48:00,28.3,17.1,29.93,North,349,4.7,6.9,62,0.00,,,0.00,WUHU216HW,2013-04-01 07:48:00,
2013-04-01 02:58:00,28.1,17.2,29.93,North,351,5.2,7.2,63,0.00,,,0.00,WUHU216HW,2013-04-01 07:58:00,
2013-04-01 03:08:00,28.1,17.6,29.93,NNW,348,3.9,5.9,64,0.00,,,0.00,WUHU216HW,2013-04-01 08:08:00,
2013-04-01 03:19:00,28.1,17.6,29.93,North,359,4.1,5.2,64,0.00,,,0.00,WUHU216HW,2013-04-01 08:19:00,
2013-04-01 03:29:00,28.1,17.6,29.93,North,0,3.9,6.9,64,0.00,,,0.00,WUHU216HW,2013-04-01 08:29:00,
2013-04-01 03:39:00,27.9,17.1,29.93,North,358,3.9,6.9,63,0.00,,,0.00,WUHU216HW,2013-04-01 08:39:00,
2013-04-01 03:49:00,27.7,17.2,29.94,North,352,3.7,5.2,64,0.00,,,0.00,WUHU216HW,2013-04-01 08:49:00,
2013-04-01 03:59:00,27.5,16.7,29.94,North,354,5.2,6.9,63,0.00,,,0.00,WUHU216HW,2013-04-01 08:59:00,
2013-04-01 04:09:00,27.0,15.8,29.95,North,5,5.3,7.2,62,0.00,,,0.00,WUHU216HW,2013-04-01 09:09:00,
2013-04-01 04:19:00,27.0,15.5,29.96,North,359,6.2,8.4,61,0.00,,,0.00,WUHU216HW,2013-04-01 09:19:00,
2013-04-01 04:29:00,26.8,15.3,29.96,North,2,5.1,7.4,61,0.00,,,0.00,WUHU216HW,2013-04-01 09:29:00,
2013-04-01 04:39:00,26.6,15.1,29.96,NNW,348,5.6,8.1,61,0.00,,,0.00,WUHU216HW,2013-04-01 09:39:00,
2013-04-01 04:49:00,26.5,14.6,29.96,North,351,5.8,7.6,60,0.00,,,0.00,WUHU216HW,2013-04-01 09:49:00,
2013-04-01 04:59:00,26.1,14.6,29.97,North,352,4.3,6.4,61,0.00,,,0.00,WUHU216HW,2013-04-01 09:59:00,
2013-04-01 05:09:00,26.1,14.6,29.97,NNW,338,4.7,6.9,61,0.00,,,0.00,WUHU216HW,2013-04-01 10:09:00,
2013-04-01 05:20:00,25.6,14.1,29.98,North,353,5.1,6.9,61,0.00,,,0.00,WUHU216HW,2013-04-01 10:20:00,
2013-04-01 05:30:00,25.2,14.1,29.98,North,1,4.2,5.4,62,0.00,,,0.00,WUHU216HW,2013-04-01 10:30:00,
2013-04-01 05:40:00,25.0,14.7,29.99,North,359,3.9,6.2,64,0.00,,,0.00,WUHU216HW,2013-04-01 10:40:00,
2013-04-01 05:50:00,24.7,15.1,29.99,North,356,2.7,4.4,66,0.00,,,0.00,WUHU216HW,2013-04-01 10:50:00,
2013-04-01 06:00:00,24.8,14.5,29.99,North,0,4.0,6.2,64,0.00,,,0.00,WUHU216HW,2013-04-01 11:00:00,
2013-04-01 06:10:00,24.5,14.2,29.99,NNW,344,3.7,5.9,64,0.00,,,0.00,WUHU216HW,2013-04-01 11:10:00,
2013-04-01 06:20:00,24.3,14.3,30.00,North,4,2.6,4.2,65,0.00,,,0.00,WUHU216HW,2013-04-01 11:20:00,
2013-04-01 06:30:00,24.3,14.3,30.00,North,357,3.8,5.2,65,0.00,,,0.00,WUHU216HW,2013-04-01 11:30:00,
2013-04-01 06:40:00,24.1,14.5,30.01,North,354,2.6,4.2,66,0.00,,,0.00,WUHU216HW,2013-04-01 11:40:00,
2013-04-01 06:50:00,24.8,14.1,30.01,North,2,3.7,5.6,63,0.00,,,0.00,WUHU216HW,2013-04-01 11:50:00,
2013-04-01 07:00:00,25.4,13.9,30.02,North,349,2.7,3.0,61,0.00,,,0.00,WUHU216HW,2013-04-01 12:00:00,
2013-04-01 07:10:00,25.5,13.3,30.02,North,356,3.5,5.6,59,0.00,,,0.00,WUHU216HW,2013-04-01 12:10:00,
2013-04-01 07:20:00,25.7,12.7,30.03,NNW,346,3.9,4.9,57,0.00,,,0.00,WUHU216HW,2013-04-01 12:20:00,
2013-04-01 07:30:00,25.8,12.4,30.03,NNW,345,4.5,7.2,56,0.00,,,0.00,WUHU216HW,2013-04-01 12:30:00,
2013-04-01 07:40:00,26.0,11.7,30.04,North,355,5.0,7.4,54,0.00,,,0.00,WUHU216HW,2013-04-01 12:40:00,
2013-04-01 07:50:00,26.2,11.9,30.04,North,359,4.9,7.6,54,0.00,,,0.00,WUHU216HW,2013-04-01 12:50:00,
2013-04-01 08:00:00,26.1,11.4,30.04,North,358,5.8,8.6,53,0.00,,,0.00,WUHU216HW,2013-04-01 13:00:00,
2013-04-01 08:10:00,26.3,11.9,30.05,NNW,344,5.6,8.9,54,0.00,,,0.00,WUHU216HW,2013-04-01 13:10:00,
2013-04-01 08:21:00,26.4,11.6,30.05,North,4,6.1,7.9,53,0.00,,,0.00,WUHU216HW,2013-04-01 13:21:00,
2013-04-01 08:31:00,26.1,10.9,30.06,North,352,6.5,8.4,52,0.00,,,0.00,WUHU216HW,2013-04-01 13:31:00,
2013-04-01 08:41:00,26.2,11.9,30.06,North,350,5.5,8.4,54,0.00,,,0.00,WUHU216HW,2013-04-01 13:41:00,
2013-04-01 08:51:00,26.6,12.7,30.06,NNW,346,5.0,6.4,55,0.00,,,0.00,WUHU216HW,2013-04-01 13:51:00,
2013-04-01 09:01:00,27.0,12.6,30.06,NNW,340,5.7,7.6,54,0.00,,,0.00,WUHU216HW,2013-04-01 14:01:00,
2013-04-01 09:11:00,27.1,12.3,30.06,NNW,333,5.4,8.9,53,0.00,,,0.00,WUHU216HW,2013-04-01 14:11:00,
2013-04-01 09:21:00,26.5,11.7,30.06,NNW,334,6.0,7.9,53,0.00,,,0.00,WUHU216HW,2013-04-01 14:21:00,
2013-04-01 09:31:00,26.3,10.7,30.06,NNW,331,7.2,9.8,51,0.00,,,0.00,WUHU216HW,2013-04-01 14:31:00,
2013-04-01 09:41:00,25.9,10.7,30.06,NNW,344,6.9,10.8,52,0.00,,,0.00,WUHU216HW,2013-04-01 14:41:00,
2013-04-01 09:51:00,26.2,10.6,30.07,NNW,347,7.5,11.1,51,0.00,,,0.00,WUHU216HW,2013-04-01 14:51:00,
2013-04-01 10:01:00,27.2,10.5,30.07,NNW,341,6.7,10.8,49,0.00,,,0.00,WUHU216HW,2013-04-01 15:01:00,
2013-04-01 10:13:00,26.8,10.2,30.07,NNW,342,7.1,10.1,49,0.00,,,0.00,WUHU216HW,2013-04-01 15:13:00,
2013-04-01 10:23:00,27.0,10.0,30.07,North,352,7.0,8.9,48,0.00,,,0.00,WUHU216HW,2013-04-01 15:23:00,
2013-04-01 10:33:00,26.3,9.7,30.07,NNW,339,4.9,7.6,49,0.00,,,0.00,WUHU216HW,2013-04-01 15:33:00,
2013-04-01 10:43:00,26.7,10.5,30.08,North,350,6.2,8.9,50,0.00,,,0.00,WUHU216HW,2013-04-01 15:43:00,
2013-04-01 10:53:00,26.9,10.3,30.08,NNW,342,7.5,9.6,49,0.00,,,0.00,WUHU216HW,2013-04-01 15:53:00,
2013-04-01 11:03:00,27.5,11.8,30.08,NNW,344,6.3,10.1,51,0.00,,,0.00,WUHU216HW,2013-04-01 16:03:00,
2013-04-01 11:13:00,26.9,10.7,30.08,NW,326,8.2,10.1,50,0.00,,,0.00,WUHU216HW,2013-04-01 16:13:00,
2013-04-01 11:23:00,27.6,11.9,30.08,NW,322,6.4,10.6,51,0.00,,,0.00,WUHU216HW,2013-04-01 16:23:00,
2013-04-01 11:33:00,29.4,11.6,30.08,WNW,294,8.0,10.8,47,0.00,,,0.00,WUHU216HW,2013-04-01 16:33:00,
2013-04-01 11:43:00,28.6,12.3,30.08,NW,320,7.1,10.1,50,0.00,,,0.00,WUHU216HW,2013-04-01 16:43:00,
2013-04-01 11:53:00,29.0,11.7,30.08,NNW,328,6.9,10.6,48,0.00,,,0.00,WUHU216HW,2013-04-01 16:53:00,
2013-04-01 12:03:00,30.0,12.7,30.08,NW,314,5.8,7.4,48,0.00,,,0.00,WUHU216HW,2013-04-01 17:03:00,
2013-04-01 12:13:00,30.9,13.5,30.08,WNW,289,7.2,12.1,48,0.00,,,0.00,WUHU216HW,2013-04-01 17:13:00,
2013-04-01 12:23:00,29.6,13.3,30.08,NW,323,6.7,10.1,50,0.00,,,0.00,WUHU216HW,2013-04-01 17:23:00,
2013-04-01 12:33:00,29.3,12.0,30.08,NW,324,7.4,11.3,48,0.00,,,0.00,WUHU216HW,2013-04-01 17:33:00,
2013-04-01 12:43:00,30.0,13.2,30.08,WNW,297,6.4,10.8,49,0.00,,,0.00,WUHU216HW,2013-04-01 17:43:00,
2013-04-01 12:53:00,30.2,12.4,30.08,NW,311,7.6,10.3,47,0.00,,,0.00,WUHU216HW,2013-04-01 17:53:00,
2013-04-01 13:04:00,31.6,13.2,30.08,WNW,299,7.3,11.1,46,0.00,,,0.00,WUHU216HW,2013-04-01 18:04:00,
2013-04-01 13:14:00,30.9,12.5,30.08,NW,306,7.5,10.3,46,0.00,,,0.00,WUHU216HW,2013-04-01 18:14:00,
2013-04-01 13:24:00,30.7,13.3,30.08,WNW,301,6.7,10.1,48,0.00,,,0.00,WUHU216HW,2013-04-01 18:24:00,
2013-04-01 13:34:00,30.2,12.4,30.08,NW,325,6.1,8.4,47,0.00,,,0.00,WUHU216HW,2013-04-01 18:34:00,
2013-04-01 13:44:00,31.1,14.2,30.08,NW,315,7.5,10.1,49,0.00,,,0.00,WUHU216HW,2013-04-01 18:44:00,
2013-04-01 13:54:00,31.9,13.9,30.08,WNW,286,7.5,9.4,47,0.00,,,0.00,WUHU216HW,2013-04-01 18:54:00,
2013-04-01 14:04:00,32.8,14.8,30.07,West,278,8.9,13.1,47,0.00,,,0.00,WUHU216HW,2013-04-01 19:04:00,
2013-04-01 14:14:00,32.6,14.1,30.07,West,262,7.9,11.3,46,0.00,,,0.00,WUHU216HW,2013-04-01 19:14:00,
2013-04-01 14:24:00,32.6,14.6,30.07,WNW,290,7.2,10.1,47,0.00,,,0.00,WUHU216HW,2013-04-01 19:24:00,
2013-04-01 14:34:00,33.2,15.1,30.07,West,267,8.3,11.6,47,0.00,,,0.00,WUHU216HW,2013-04-01 19:34:00,
2013-04-01 14:44:00,33.4,14.3,30.07,NW,304,7.2,9.4,45,0.00,,,0.00,WUHU216HW,2013-04-01 19:44:00,
2013-04-01 14:54:00,33.7,14.0,30.07,NW,307,6.6,10.6,44,0.00,,,0.00,WUHU216HW,2013-04-01 19:54:00,
2013-04-01 15:04:00,33.5,14.4,30.07,WNW,291,7.7,10.3,45,0.00,,,0.00,WUHU216HW,2013-04-01 20:04:00,
2013-04-01 15:14:00,33.7,14.6,30.07,WNW,287,6.9,9.4,45,0.00,,,0.00,WUHU216HW,2013-04-01 20:14:00,
2013-04-01 15:24:00,33.6,14.5,30.07,WNW,295,9.3,13.3,45,0.00,,,0.00,WUHU216HW,2013-04-01 20:24:00,
2013-04-01 15:34:00,33.8,14.7,30.06,WSW,238,7.5,10.3,45,0.00,,,0.00,WUHU216HW,2013-04-01 20:34:00,
2013-04-01 15:44:00,35.5,16.2,30.06,WSW,243,6.9,9.4,45,0.00,,,0.00,WUHU216HW,2013-04-01 20:44:00,
2013-04-01 15:54:00,34.3,14.1,30.06,West,281,10.5,15.3,43,0.00,,,0.00,WUHU216HW,2013-04-01 20:54:00,
2013-04-01 16:04:00,34.2,14.5,30.06,West,271,7.4,10.8,44,0.00,,,0.00,WUHU216HW,2013-04-01 21:04:00,
2013-04-01 16:14:00,33.4,13.7,30.06,WNW,300,8.6,13.3,44,0.00,,,0.00,WUHU216HW,2013-04-01 21:14:00,
2013-04-01 16:24:00,33.0,13.4,30.06,WNW,295,8.4,12.5,44,0.00,,,0.00,WUHU216HW,2013-04-01 21:24:00,
2013-04-01 16:34:00,33.3,12.6,30.06,West,279,7.9,12.5,42,0.00,,,0.00,WUHU216HW,2013-04-01 21:34:00,
2013-04-01 16:44:00,33.8,13.6,30.06,West,262,8.3,13.5,43,0.00,,,0.00,WUHU216HW,2013-04-01 21:44:00,
2013-04-01 16:54:00,33.4,13.2,30.06,West,279,8.4,14.1,43,0.00,,,0.00,WUHU216HW,2013-04-01 21:54:00,
2013-04-01 17:05:00,33.9,13.1,30.06,West,276,8.0,13.5,42,0.00,,,0.00,WUHU216HW,2013-04-01 22:05:00,
2013-04-01 17:15:00,33.5,12.8,30.06,West,277,8.7,11.6,42,0.00,,,0.00,WUHU216HW,2013-04-01 22:15:00,
2013-04-01 17:25:00,33.8,14.2,30.06,WNW,299,7.5,10.1,44,0.00,,,0.00,WUHU216HW,2013-04-01 22:25:00,
2013-04-01 17:35:00,33.9,13.1,30.06,West,270,7.3,10.6,42,0.00,,,0.00,WUHU216HW,2013-04-01 22:35:00,
2013-04-01 17:45:00,33.6,13.4,30.07,WNW,283,7.4,14.1,43,0.00,,,0.00,WUHU216HW,2013-04-01 22:45:00,
2013-04-01 17:55:00,33.3,12.6,30.06,WNW,295,7.4,9.8,42,0.00,,,0.00,WUHU216HW,2013-04-01 22:55:00,
2013-04-01 18:05:00,33.4,13.2,30.07,WNW,290,8.3,11.3,43,0.00,,,0.00,WUHU216HW,2013-04-01 23:05:00,
2013-04-01 18:15:00,33.1,13.5,30.07,NW,311,7.2,9.6,44,0.00,,,0.00,WUHU216HW,2013-04-01 23:15:00,
2013-04-01 18:25:00,33.0,13.4,30.07,WNW,294,7.9,11.1,44,0.00,,,0.00,WUHU216HW,2013-04-01 23:25:00,
2013-04-01 18:35:00,32.7,13.7,30.07,WNW,298,6.7,10.1,45,0.00,,,0.00,WUHU216HW,2013-04-01 23:35:00,
2013-04-01 18:45:00,32.2,12.1,30.07,NW,319,5.7,10.1,43,0.00,,,0.00,WUHU216HW,2013-04-01 23:45:00,
2013-04-01 18:55:00,31.9,11.9,30.07,NNW,346,6.0,9.4,43,0.00,,,0.00,WUHU216HW,2013-04-01 23:55:00,
2013-04-01 19:05:00,31.5,12.6,30.08,NW,305,5.4,7.6,45,0.00,,,0.00,WUHU216HW,2013-04-02 00:05:00,
2013-04-01 19:15:00,31.1,12.7,30.08,NNW,340,4.8,6.6,46,0.00,,,0.00,WUHU216HW,2013-04-02 00:15:00,
2013-04-01 19:25:00,30.6,13.2,30.08,NW,320,5.1,8.4,48,0.00,,,0.00,WUHU216HW,2013-04-02 00:25:00,
2013-04-01 19:35:00,30.4,13.0,30.08,NNW,335,5.2,7.6,48,0.00,,,0.00,WUHU216HW,2013-04-02 00:35:00,
2013-04-01 19:45:00,30.2,12.9,30.08,NNW,328,4.9,8.4,48,0.00,,,0.00,WUHU216HW,2013-04-02 00:45:00,
2013-04-01 19:55:00,30.1,13.7,30.09,NW,320,4.1,6.9,50,0.00,,,0.00,WUHU216HW,2013-04-02 00:55:00,
2013-04-01 20:06:00,29.9,13.5,30.09,NNW,343,4.1,6.2,50,0.00,,,0.00,WUHU216HW,2013-04-02 01:06:00,
2013-04-01 20:16:00,29.7,13.3,30.09,North,350,4.6,5.9,50,0.00,,,0.00,WUHU216HW,2013-04-02 01:16:00,
2013-04-01 20:26:00,29.3,13.0,30.09,NNW,347,4.4,6.2,50,0.00,,,0.00,WUHU216HW,2013-04-02 01:26:00,
2013-04-01 20:36:00,29.0,13.2,30.10,NNW,347,2.8,4.9,51,0.00,,,0.00,WUHU216HW,2013-04-02 01:36:00,
2013-04-01 20:46:00,28.6,13.2,30.10,NNW,339,3.4,4.4,52,0.00,,,0.00,WUHU216HW,2013-04-02 01:46:00,
2013-04-01 20:56:00,28.4,13.5,30.10,NNW,346,3.2,4.7,53,0.00,,,0.00,WUHU216HW,2013-04-02 01:56:00,
2013-04-01 21:06:00,27.9,12.6,30.11,NNW,338,2.3,3.2,52,0.00,,,0.00,WUHU216HW,2013-04-02 02:06:00,
2013-04-01 21:16:00,27.7,12.8,30.11,NW,306,2.5,4.9,53,0.00,,,0.00,WUHU216HW,2013-04-02 02:16:00,
2013-04-01 21:27:00,27.4,13.4,30.12,NW,320,2.4,3.7,55,0.00,,,0.00,WUHU216HW,2013-04-02 02:27:00,
2013-04-01 21:37:00,27.4,13.8,30.12,NW,316,2.4,4.4,56,0.00,,,0.00,WUHU216HW,2013-04-02 02:37:00,
2013-04-01 21:47:00,27.2,14.5,30.12,NW,312,2.6,4.2,58,0.00,,,0.00,WUHU216HW,2013-04-02 02:47:00,
2013-04-01 21:57:00,27.2,14.9,30.12,NW,320,3.1,5.6,59,0.00,,,0.00,WUHU216HW,2013-04-02 02:57:00,
2013-04-01 22:07:00,27.0,14.7,30.12,NW,318,3.1,5.9,59,0.00,,,0.00,WUHU216HW,2013-04-02 03:07:00,
2013-04-01 22:17:00,27.2,14.5,30.12,NNW,330,4.1,6.2,58,0.00,,,0.00,WUHU216HW,2013-04-02 03:17:00,
2013-04-01 22:27:00,27.0,14.3,30.12,NW,319,3.8,5.2,58,0.00,,,0.00,WUHU216HW,2013-04-02 03:27:00,
2013-04-01 22:37:00,26.8,14.1,30.13,NW,310,4.6,8.1,58,0.00,,,0.00,WUHU216HW,2013-04-02 03:37:00,
2013-04-01 22:47:00,26.8,14.1,30.13,NW,304,3.5,4.4,58,0.00,,,0.00,WUHU216HW,2013-04-02 03:47:00,
2013-04-01 22:57:00,26.8,14.1,30.13,WNW,291,4.7,6.9,58,0.00,,,0.00,WUHU216HW,2013-04-02 03:57:00,
2013-04-01 23:07:00,26.6,14.3,30.13,NW,318,4.6,7.6,59,0.00,,,0.00,WUHU216HW,2013-04-02 04:07:00,
2013-04-01 23:17:00,26.5,14.6,30.13,WNW,299,4.5,7.2,60,0.00,,,0.00,WUHU216HW,2013-04-02 04:17:00,
2013-04-01 23:27:00,26.3,14.0,30.13,WNW,302,4.3,6.6,59,0.00,,,0.00,WUHU216HW,2013-04-02 04:27:00,
2013-04-01 23:38:00,25.9,14.0,30.13,WNW,293,3.5,5.6,60,0.00,,,0.00,WUHU216HW,2013-04-02 04:38:00,
2013-04-01 23:48:00,25.9,14.0,30.13,NW,305,5.3,7.6,60,0.00,,,0.00,WUHU216HW,2013-04-02 04:48:00,
2013-04-01 23:58:00,25.7,13.8,30.13,WNW,294,3.7,6.6,60,0.00,,,0.00,WUHU216HW,2013-04-02 04:58:00,